Location: Boitzum
(52.1496°N, 9.6943°E)
Time: 20:47:53
(UTC+00:00)

Cosmos 1992 Rocket - Pass Details

Date: 13 January 2026
Orbit: 754 x 761 km, 74.0° (Epoch: 16 February)

Event Time Altitude Azimuth Distance (km) Brightness Sun altitude
Exits shadow 04:16:52 57° 19° (NNE) 889 4.3 -27.9°
Maximum altitude 04:17:35 65° 61° (ENE) 836 4.3 -27.8°
Drops below altitude 10° 04:22:44 10° 144° (SE) 2,285 6.9 -27.0°
Sets 04:25:07 0° 147° (SSE) 3,208 7.7 -26.6°
